owner,sensor,date,latitude,longitude,vertical_datum,sea_water_temperature,qcFlag
Chevron,ioos:station:wmo:42372:2,2021-12-01T00:08:00Z,27.7790,-90.5190,11.1,27.3,11111222
Chevron,ioos:station:wmo:42372:2,2021-12-01T00:18:00Z,27.7790,-90.5190,11.1,27.3,11111222
Chevron,ioos:station:wmo:42372:2,2021-12-01T00:28:00Z,27.7790,-90.5190,11.0,27.4,11111222
Chevron,ioos:station:wmo:42372:2,2021-12-01T00:38:00Z,27.7790,-90.5190,11.0,27.4,11111222
Chevron,ioos:station:wmo:42372:2,2021-12-01T00:48:00Z,27.7790,-90.5190,11.1,27.4,11111222
Chevron,ioos:station:wmo:42372:2,2021-12-01T00:58:00Z,27.7790,-90.5190,11.1,27.3,11111222
Chevron,ioos:station:wmo:42372:2,2021-12-01T01:08:00Z,27.7790,-90.5190,11.0,27.3,11111222
Chevron,ioos:station:wmo:42372:2,2021-12-01T01:18:00Z,27.7790,-90.5190,10.9,27.3,11111222
Chevron,ioos:station:wmo:42372:2,2021-12-01T01:28:00Z,27.7790,-90.5190,11.0,27.3,11111222
Chevron,ioos:station:wmo:42372:2,2021-12-01T01:38:00Z,27.7790,-90.5190,11.0,27.3,11111222
Chevron,ioos:station:wmo:42372:2,2021-12-01T01:48:00Z,27.7790,-90.5190,11.1,27.3,11111222
Chevron,ioos:station:wmo:42372:2,2021-12-01T01:58:00Z,27.7790,-90.5190,11.0,27.3,11111222
Chevron,ioos:station:wmo:42372:2,2021-12-01T02:08:00Z,27.7790,-90.5190,11.0,27.2,11111222
Chevron,ioos:station:wmo:42372:2,2021-12-01T02:18:00Z,27.7790,-90.5190,11.1,27.2,11111222
Chevron,ioos:station:wmo:42372:2,2021-12-01T02:28:00Z,27.7790,-90.5190,11.0,27.2,11111222
Chevron,ioos:station:wmo:42372:2,2021-12-01T02:38:00Z,27.7790,-90.5190,11.1,27.2,11111222
Chevron,ioos:station:wmo:42372:2,2021-12-01T02:48:00Z,27.7790,-90.5190,11.0,27.2,11111222
Chevron,ioos:station:wmo:42372:2,2021-12-01T02:58:00Z,27.7790,-90.5190,11.1,27.2,11111222
Chevron,ioos:station:wmo:42372:2,2021-12-01T03:08:00Z,27.7790,-90.5190,11.1,27.2,11111222
Chevron,ioos:station:wmo:42372:2,2021-12-01T03:18:00Z,27.7790,-90.5190,11.1,27.2,11111222
Chevron,ioos:station:wmo:42372:2,2021-12-01T03:28:00Z,27.7790,-90.5190,11.0,27.2,11111222
Chevron,ioos:station:wmo:42372:2,2021-12-01T03:38:00Z,27.7790,-90.5190,11.0,27.1,11111222
Chevron,ioos:station:wmo:42372:2,2021-12-01T03:48:00Z,27.7790,-90.5190,11.0,27.1,11111222
Chevron,ioos:station:wmo:42372:2,2021-12-01T03:58:00Z,27.7790,-90.5190,11.0,27.1,11111222
Chevron,ioos:station:wmo:42372:2,2021-12-01T04:08:00Z,27.7790,-90.5190,10.9,27.1,11111222
Chevron,ioos:station:wmo:42372:2,2021-12-01T04:18:00Z,27.7790,-90.5190,11.1,27.1,11111222
Chevron,ioos:station:wmo:42372:2,2021-12-01T04:28:00Z,27.7790,-90.5190,10.9,27.1,11111222
Chevron,ioos:station:wmo:42372:2,2021-12-01T04:38:00Z,27.7790,-90.5190,11.1,27.1,11111222
Chevron,ioos:station:wmo:42372:2,2021-12-01T04:48:00Z,27.7790,-90.5190,10.9,27.1,11111222
Chevron,ioos:station:wmo:42372:2,2021-12-01T04:58:00Z,27.7790,-90.5190,11.1,27.1,11111222
Chevron,ioos:station:wmo:42372:2,2021-12-01T05:08:00Z,27.7790,-90.5190,11.1,27.1,11111222
Chevron,ioos:station:wmo:42372:2,2021-12-01T05:18:00Z,27.7790,-90.5190,11.0,27.1,11111222
Chevron,ioos:station:wmo:42372:2,2021-12-01T05:28:00Z,27.7790,-90.5190,10.9,27.1,11111222
Chevron,ioos:station:wmo:42372:2,2021-12-01T05:38:00Z,27.7790,-90.5190,11.0,27.0,11111222
Chevron,ioos:station:wmo:42372:2,2021-12-01T05:48:00Z,27.7790,-90.5190,10.9,27.0,11111222
Chevron,ioos:station:wmo:42372:2,2021-12-01T05:58:00Z,27.7790,-90.5190,10.8,27.0,11111222
Chevron,ioos:station:wmo:42372:2,2021-12-01T06:08:00Z,27.7790,-90.5190,10.9,27.0,11111222
Chevron,ioos:station:wmo:42372:2,2021-12-01T06:18:00Z,27.7790,-90.5190,10.9,27.0,11111222
Chevron,ioos:station:wmo:42372:2,2021-12-01T06:28:00Z,27.7790,-90.5190,10.9,27.0,11111222
Chevron,ioos:station:wmo:42372:2,2021-12-01T06:38:00Z,27.7790,-90.5190,10.9,27.0,11111222
Chevron,ioos:station:wmo:42372:2,2021-12-01T06:48:00Z,27.7790,-90.5190,10.8,27.0,11111222
Chevron,ioos:station:wmo:42372:2,2021-12-01T06:58:00Z,27.7790,-90.5190,11.0,27.0,11111222
Chevron,ioos:station:wmo:42372:2,2021-12-01T07:08:00Z,27.7790,-90.5190,11.0,27.0,11111222
Chevron,ioos:station:wmo:42372:2,2021-12-01T07:18:00Z,27.7790,-90.5190,11.1,27.0,11111222
Chevron,ioos:station:wmo:42372:2,2021-12-01T07:28:00Z,27.7790,-90.5190,11.0,26.9,11111222
Chevron,ioos:station:wmo:42372:2,2021-12-01T07:38:00Z,27.7790,-90.5190,10.9,26.9,11111222
Chevron,ioos:station:wmo:42372:2,2021-12-01T07:48:00Z,27.7790,-90.5190,10.9,26.9,11111222
Chevron,ioos:station:wmo:42372:2,2021-12-01T07:58:00Z,27.7790,-90.5190,11.0,26.9,11111222
Chevron,ioos:station:wmo:42372:2,2021-12-01T08:08:00Z,27.7790,-90.5190,10.8,26.9,11111222
Chevron,ioos:station:wmo:42372:2,2021-12-01T08:18:00Z,27.7790,-90.5190,10.9,26.9,11111222
Chevron,ioos:station:wmo:42372:2,2021-12-01T08:28:00Z,27.7790,-90.5190,10.9,26.9,11111222
Chevron,ioos:station:wmo:42372:2,2021-12-01T08:38:00Z,27.7790,-90.5190,10.9,26.9,11111222
Chevron,ioos:station:wmo:42372:2,2021-12-01T08:48:00Z,27.7790,-90.5190,10.9,26.9,11111222
Chevron,ioos:station:wmo:42372:2,2021-12-01T08:58:00Z,27.7790,-90.5190,10.8,26.9,11111222
Chevron,ioos:station:wmo:42372:2,2021-12-01T09:08:00Z,27.7790,-90.5190,11.0,26.9,11111222
Chevron,ioos:station:wmo:42372:2,2021-12-01T09:18:00Z,27.7790,-90.5190,10.8,26.9,11111222
Chevron,ioos:station:wmo:42372:2,2021-12-01T09:28:00Z,27.7790,-90.5190,10.9,27.0,11111222
Chevron,ioos:station:wmo:42372:2,2021-12-01T09:38:00Z,27.7790,-90.5190,10.9,27.0,11111222
Chevron,ioos:station:wmo:42372:2,2021-12-01T09:48:00Z,27.7790,-90.5190,10.8,27.0,11111222
Chevron,ioos:station:wmo:42372:2,2021-12-01T09:58:00Z,27.7790,-90.5190,10.8,27.0,11111222
Chevron,ioos:station:wmo:42372:2,2021-12-01T10:08:00Z,27.7790,-90.5190,10.8,27.0,11111222
Chevron,ioos:station:wmo:42372:2,2021-12-01T10:18:00Z,27.7790,-90.5190,10.7,27.0,11111222
Chevron,ioos:station:wmo:42372:2,2021-12-01T10:28:00Z,27.7790,-90.5190,10.8,27.0,11111222
Chevron,ioos:station:wmo:42372:2,2021-12-01T10:38:00Z,27.7790,-90.5190,11.0,27.0,11111222
Chevron,ioos:station:wmo:42372:2,2021-12-01T10:48:00Z,27.7790,-90.5190,10.8,27.0,11111222
Chevron,ioos:station:wmo:42372:2,2021-12-01T10:58:00Z,27.7790,-90.5190,10.8,27.0,11111222
Chevron,ioos:station:wmo:42372:2,2021-12-01T11:08:00Z,27.7790,-90.5190,10.9,27.0,11111222
Chevron,ioos:station:wmo:42372:2,2021-12-01T11:18:00Z,27.7790,-90.5190,10.9,27.0,11111222
Chevron,ioos:station:wmo:42372:2,2021-12-01T11:28:00Z,27.7790,-90.5190,10.8,27.0,11111222
Chevron,ioos:station:wmo:42372:2,2021-12-01T11:38:00Z,27.7790,-90.5190,10.9,27.0,11111222
Chevron,ioos:station:wmo:42372:2,2021-12-01T11:48:00Z,27.7790,-90.5190,10.8,26.9,11111222
Chevron,ioos:station:wmo:42372:2,2021-12-01T11:58:00Z,27.7790,-90.5190,11.0,26.9,11111222
Chevron,ioos:station:wmo:42372:2,2021-12-01T12:08:00Z,27.7790,-90.5190,10.9,26.9,11111222
Chevron,ioos:station:wmo:42372:2,2021-12-01T12:18:00Z,27.7790,-90.5190,11.0,26.9,11111222
Chevron,ioos:station:wmo:42372:2,2021-12-01T12:28:00Z,27.7790,-90.5190,10.9,26.9,11111222
Chevron,ioos:station:wmo:42372:2,2021-12-01T12:38:00Z,27.7790,-90.5190,11.0,26.9,11111222
Chevron,ioos:station:wmo:42372:2,2021-12-01T12:48:00Z,27.7790,-90.5190,11.0,26.9,11111222
Chevron,ioos:station:wmo:42372:2,2021-12-01T12:58:00Z,27.7790,-90.5190,11.1,26.9,11111222
Chevron,ioos:station:wmo:42372:2,2021-12-01T13:08:00Z,27.7790,-90.5190,11.0,26.9,11111222
Chevron,ioos:station:wmo:42372:2,2021-12-01T13:18:00Z,27.7790,-90.5190,11.2,26.9,11111222
Chevron,ioos:station:wmo:42372:2,2021-12-01T13:28:00Z,27.7790,-90.5190,11.0,26.9,11111222
Chevron,ioos:station:wmo:42372:2,2021-12-01T13:38:00Z,27.7790,-90.5190,11.0,26.9,11111222
Chevron,ioos:station:wmo:42372:2,2021-12-01T13:48:00Z,27.7790,-90.5190,11.0,26.9,11111222
Chevron,ioos:station:wmo:42372:2,2021-12-01T13:58:00Z,27.7790,-90.5190,10.9,26.9,11111222
Chevron,ioos:station:wmo:42372:2,2021-12-01T14:08:00Z,27.7790,-90.5190,11.0,26.9,11111222
Chevron,ioos:station:wmo:42372:2,2021-12-01T14:18:00Z,27.7790,-90.5190,11.0,26.9,11111222
Chevron,ioos:station:wmo:42372:2,2021-12-01T14:28:00Z,27.7790,-90.5190,10.9,26.9,11111222
Chevron,ioos:station:wmo:42372:2,2021-12-01T14:38:00Z,27.7790,-90.5190,11.0,26.9,11111222
Chevron,ioos:station:wmo:42372:2,2021-12-01T14:48:00Z,27.7790,-90.5190,11.0,26.9,11111222
Chevron,ioos:station:wmo:42372:2,2021-12-01T14:58:00Z,27.7790,-90.5190,11.0,26.9,11111222
Chevron,ioos:station:wmo:42372:2,2021-12-01T15:08:00Z,27.7790,-90.5190,11.0,26.9,11111222
Chevron,ioos:station:wmo:42372:2,2021-12-01T15:18:00Z,27.7790,-90.5190,11.0,26.9,11111222
Chevron,ioos:station:wmo:42372:2,2021-12-01T15:28:00Z,27.7790,-90.5190,11.1,26.9,11111222
Chevron,ioos:station:wmo:42372:2,2021-12-01T15:38:00Z,27.7790,-90.5190,11.1,26.9,11111222
Chevron,ioos:station:wmo:42372:2,2021-12-01T15:48:00Z,27.7790,-90.5190,11.1,26.9,11111222
Chevron,ioos:station:wmo:42372:2,2021-12-01T15:58:00Z,27.7790,-90.5190,11.1,26.9,11111222
Chevron,ioos:station:wmo:42372:2,2021-12-01T16:08:00Z,27.7790,-90.5190,11.1,26.9,11111222
Chevron,ioos:station:wmo:42372:2,2021-12-01T16:18:00Z,27.7790,-90.5190,11.1,26.9,11111222
Chevron,ioos:station:wmo:42372:2,2021-12-01T16:28:00Z,27.7790,-90.5190,11.1,26.9,11111222
Chevron,ioos:station:wmo:42372:2,2021-12-01T16:38:00Z,27.7790,-90.5190,11.1,26.9,11111222
Chevron,ioos:station:wmo:42372:2,2021-12-01T16:48:00Z,27.7790,-90.5190,11.2,26.9,11111222
Chevron,ioos:station:wmo:42372:2,2021-12-01T16:58:00Z,27.7790,-90.5190,11.1,26.9,11111222
Chevron,ioos:station:wmo:42372:2,2021-12-01T17:08:00Z,27.7790,-90.5190,11.1,26.9,11111222
Chevron,ioos:station:wmo:42372:2,2021-12-01T17:18:00Z,27.7790,-90.5190,11.1,26.9,11111222
Chevron,ioos:station:wmo:42372:2,2021-12-01T17:28:00Z,27.7790,-90.5190,11.2,26.9,11111222
Chevron,ioos:station:wmo:42372:2,2021-12-01T17:38:00Z,27.7790,-90.5190,11.1,26.9,11111222
Chevron,ioos:station:wmo:42372:2,2021-12-01T17:48:00Z,27.7790,-90.5190,11.2,26.9,11111222
Chevron,ioos:station:wmo:42372:2,2021-12-01T17:58:00Z,27.7790,-90.5190,11.0,26.9,11111222
Chevron,ioos:station:wmo:42372:2,2021-12-01T18:08:00Z,27.7790,-90.5190,11.1,26.9,11111222
Chevron,ioos:station:wmo:42372:2,2021-12-01T18:18:00Z,27.7790,-90.5190,11.0,26.9,11111222
Chevron,ioos:station:wmo:42372:2,2021-12-01T18:28:00Z,27.7790,-90.5190,11.2,26.9,11111222
Chevron,ioos:station:wmo:42372:2,2021-12-01T18:38:00Z,27.7790,-90.5190,11.2,26.9,11111222
Chevron,ioos:station:wmo:42372:2,2021-12-01T18:48:00Z,27.7790,-90.5190,11.1,26.9,11111222
Chevron,ioos:station:wmo:42372:2,2021-12-01T18:58:00Z,27.7790,-90.5190,11.1,26.9,11111222
Chevron,ioos:station:wmo:42372:2,2021-12-01T19:08:00Z,27.7790,-90.5190,11.3,26.9,11111222
Chevron,ioos:station:wmo:42372:2,2021-12-01T19:18:00Z,27.7790,-90.5190,11.1,26.9,11111222
Chevron,ioos:station:wmo:42372:2,2021-12-01T19:28:00Z,27.7790,-90.5190,11.2,26.9,11111222
Chevron,ioos:station:wmo:42372:2,2021-12-01T19:38:00Z,27.7790,-90.5190,11.1,26.9,11111222
Chevron,ioos:station:wmo:42372:2,2021-12-01T19:48:00Z,27.7790,-90.5190,11.1,26.9,11111222
Chevron,ioos:station:wmo:42372:2,2021-12-01T19:58:00Z,27.7790,-90.5190,11.2,26.9,11111222
Chevron,ioos:station:wmo:42372:2,2021-12-01T20:08:00Z,27.7790,-90.5190,11.2,26.9,11111222
Chevron,ioos:station:wmo:42372:2,2021-12-01T20:18:00Z,27.7790,-90.5190,11.1,26.9,11111222
Chevron,ioos:station:wmo:42372:2,2021-12-01T20:28:00Z,27.7790,-90.5190,11.3,26.9,11111222
Chevron,ioos:station:wmo:42372:2,2021-12-01T20:38:00Z,27.7790,-90.5190,11.1,26.9,11111222
Chevron,ioos:station:wmo:42372:2,2021-12-01T20:48:00Z,27.7790,-90.5190,11.3,26.9,11111222
Chevron,ioos:station:wmo:42372:2,2021-12-01T20:58:00Z,27.7790,-90.5190,11.2,26.9,11111222
Chevron,ioos:station:wmo:42372:2,2021-12-01T21:08:00Z,27.7790,-90.5190,11.2,26.9,11111222
Chevron,ioos:station:wmo:42372:2,2021-12-01T21:18:00Z,27.7790,-90.5190,11.2,26.9,11111222
Chevron,ioos:station:wmo:42372:2,2021-12-01T21:28:00Z,27.7790,-90.5190,11.2,26.9,11111222
Chevron,ioos:station:wmo:42372:2,2021-12-01T21:38:00Z,27.7790,-90.5190,11.1,26.9,11111222
Chevron,ioos:station:wmo:42372:2,2021-12-01T21:48:00Z,27.7790,-90.5190,11.3,26.9,11111222
Chevron,ioos:station:wmo:42372:2,2021-12-01T21:58:00Z,27.7790,-90.5190,11.2,26.9,11111222
Chevron,ioos:station:wmo:42372:2,2021-12-01T22:08:00Z,27.7790,-90.5190,11.3,26.9,11111222
Chevron,ioos:station:wmo:42372:2,2021-12-01T22:18:00Z,27.7790,-90.5190,11.1,26.9,11111222
Chevron,ioos:station:wmo:42372:2,2021-12-01T22:28:00Z,27.7790,-90.5190,11.1,26.9,11111222
Chevron,ioos:station:wmo:42372:2,2021-12-01T22:38:00Z,27.7790,-90.5190,11.3,26.9,11111222
Chevron,ioos:station:wmo:42372:2,2021-12-01T22:48:00Z,27.7790,-90.5190,11.2,26.9,11111222
Chevron,ioos:station:wmo:42372:2,2021-12-01T22:58:00Z,27.7790,-90.5190,11.3,26.9,11111222
Chevron,ioos:station:wmo:42372:2,2021-12-01T23:08:00Z,27.7790,-90.5190,11.3,26.9,11111222
Chevron,ioos:station:wmo:42372:2,2021-12-01T23:18:00Z,27.7790,-90.5190,11.3,26.9,11111222
Chevron,ioos:station:wmo:42372:2,2021-12-01T23:28:00Z,27.7790,-90.5190,11.4,26.9,11111222
Chevron,ioos:station:wmo:42372:2,2021-12-01T23:38:00Z,27.7790,-90.5190,11.3,26.9,11111222
Chevron,ioos:station:wmo:42372:2,2021-12-01T23:48:00Z,27.7790,-90.5190,11.4,26.9,11111222
Chevron,ioos:station:wmo:42372:2,2021-12-01T23:58:00Z,27.7790,-90.5190,11.3,26.9,11111222
Chevron,ioos:station:wmo:42372:2,2021-12-02T00:08:00Z,27.7790,-90.5190,11.3,26.9,11111222
Chevron,ioos:station:wmo:42372:2,2021-12-02T00:18:00Z,27.7790,-90.5190,11.4,26.9,11111222
Chevron,ioos:station:wmo:42372:2,2021-12-02T00:28:00Z,27.7790,-90.5190,11.3,26.9,11111222
Chevron,ioos:station:wmo:42372:2,2021-12-02T00:38:00Z,27.7790,-90.5190,11.3,26.9,11111222
Chevron,ioos:station:wmo:42372:2,2021-12-02T00:48:00Z,27.7790,-90.5190,11.3,26.8,11111222
Chevron,ioos:station:wmo:42372:2,2021-12-02T00:58:00Z,27.7790,-90.5190,11.4,26.8,11111222
Chevron,ioos:station:wmo:42372:2,2021-12-02T01:08:00Z,27.7790,-90.5190,11.3,26.8,11111222
Chevron,ioos:station:wmo:42372:2,2021-12-02T01:18:00Z,27.7790,-90.5190,11.4,26.8,11111222
Chevron,ioos:station:wmo:42372:2,2021-12-02T01:28:00Z,27.7790,-90.5190,11.3,26.8,11111222
Chevron,ioos:station:wmo:42372:2,2021-12-02T01:38:00Z,27.7790,-90.5190,11.4,26.8,11111222
Chevron,ioos:station:wmo:42372:2,2021-12-02T01:48:00Z,27.7790,-90.5190,11.3,26.8,11111222
Chevron,ioos:station:wmo:42372:2,2021-12-02T01:58:00Z,27.7790,-90.5190,11.3,26.8,11111222
Chevron,ioos:station:wmo:42372:2,2021-12-02T02:08:00Z,27.7790,-90.5190,11.2,26.8,11111222
Chevron,ioos:station:wmo:42372:2,2021-12-02T02:18:00Z,27.7790,-90.5190,11.4,26.8,11111222
Chevron,ioos:station:wmo:42372:2,2021-12-02T02:28:00Z,27.7790,-90.5190,11.4,26.8,11111222
Chevron,ioos:station:wmo:42372:2,2021-12-02T02:38:00Z,27.7790,-90.5190,11.2,26.8,11111222
Chevron,ioos:station:wmo:42372:2,2021-12-02T02:48:00Z,27.7790,-90.5190,11.4,26.8,11111222
Chevron,ioos:station:wmo:42372:2,2021-12-02T02:58:00Z,27.7790,-90.5190,11.2,26.8,11111222
Chevron,ioos:station:wmo:42372:2,2021-12-02T03:08:00Z,27.7790,-90.5190,11.2,26.8,11111222
Chevron,ioos:station:wmo:42372:2,2021-12-02T03:18:00Z,27.7790,-90.5190,11.3,26.8,11111222
Chevron,ioos:station:wmo:42372:2,2021-12-02T03:28:00Z,27.7790,-90.5190,11.2,26.8,11111222
Chevron,ioos:station:wmo:42372:2,2021-12-02T03:38:00Z,27.7790,-90.5190,11.3,26.8,11111222
Chevron,ioos:station:wmo:42372:2,2021-12-02T03:48:00Z,27.7790,-90.5190,11.4,26.8,11111222
Chevron,ioos:station:wmo:42372:2,2021-12-02T03:58:00Z,27.7790,-90.5190,11.3,26.8,11111222
Chevron,ioos:station:wmo:42372:2,2021-12-02T04:08:00Z,27.7790,-90.5190,11.3,26.8,11111222
Chevron,ioos:station:wmo:42372:2,2021-12-02T04:18:00Z,27.7790,-90.5190,11.4,26.8,11111222
Chevron,ioos:station:wmo:42372:2,2021-12-02T04:28:00Z,27.7790,-90.5190,11.3,26.8,11111222
Chevron,ioos:station:wmo:42372:2,2021-12-02T04:38:00Z,27.7790,-90.5190,11.2,26.8,11111222
Chevron,ioos:station:wmo:42372:2,2021-12-02T04:48:00Z,27.7790,-90.5190,11.2,26.8,11111222
Chevron,ioos:station:wmo:42372:2,2021-12-02T04:58:00Z,27.7790,-90.5190,11.4,26.8,11111222
Chevron,ioos:station:wmo:42372:2,2021-12-02T05:08:00Z,27.7790,-90.5190,11.2,26.8,11111222
Chevron,ioos:station:wmo:42372:2,2021-12-02T05:18:00Z,27.7790,-90.5190,11.1,26.8,11111222
Chevron,ioos:station:wmo:42372:2,2021-12-02T05:28:00Z,27.7790,-90.5190,11.2,26.8,11111222
Chevron,ioos:station:wmo:42372:2,2021-12-02T05:38:00Z,27.7790,-90.5190,11.2,26.8,11111222
Chevron,ioos:station:wmo:42372:2,2021-12-02T05:48:00Z,27.7790,-90.5190,11.3,26.8,11111222
Chevron,ioos:station:wmo:42372:2,2021-12-02T05:58:00Z,27.7790,-90.5190,11.2,26.8,11111222
Chevron,ioos:station:wmo:42372:2,2021-12-02T06:08:00Z,27.7790,-90.5190,11.3,26.8,11111222
Chevron,ioos:station:wmo:42372:2,2021-12-02T06:18:00Z,27.7790,-90.5190,11.2,26.8,11111222
Chevron,ioos:station:wmo:42372:2,2021-12-02T06:28:00Z,27.7790,-90.5190,11.1,26.9,11111222
Chevron,ioos:station:wmo:42372:2,2021-12-02T06:38:00Z,27.7790,-90.5190,11.1,26.9,11111222
Chevron,ioos:station:wmo:42372:2,2021-12-02T06:49:00Z,27.7790,-90.5190,11.2,26.9,11111222
Chevron,ioos:station:wmo:42372:2,2021-12-02T06:59:00Z,27.7790,-90.5190,11.2,26.9,11111222
Chevron,ioos:station:wmo:42372:2,2021-12-02T07:09:00Z,27.7790,-90.5190,11.2,26.9,11111222
Chevron,ioos:station:wmo:42372:2,2021-12-02T07:19:00Z,27.7790,-90.5190,11.0,26.9,11111222
Chevron,ioos:station:wmo:42372:2,2021-12-02T07:29:00Z,27.7790,-90.5190,11.1,26.9,11111222
Chevron,ioos:station:wmo:42372:2,2021-12-02T07:39:00Z,27.7790,-90.5190,11.2,26.9,11111222
Chevron,ioos:station:wmo:42372:2,2021-12-02T07:49:00Z,27.7790,-90.5190,11.2,26.9,11111222
Chevron,ioos:station:wmo:42372:2,2021-12-02T07:59:00Z,27.7790,-90.5190,11.1,26.9,11111222
Chevron,ioos:station:wmo:42372:2,2021-12-02T08:09:00Z,27.7790,-90.5190,11.1,26.9,11111222
Chevron,ioos:station:wmo:42372:2,2021-12-02T08:19:00Z,27.7790,-90.5190,11.0,27.0,11111222
Chevron,ioos:station:wmo:42372:2,2021-12-02T08:29:00Z,27.7790,-90.5190,11.1,27.0,11111222
Chevron,ioos:station:wmo:42372:2,2021-12-02T08:39:00Z,27.7790,-90.5190,11.0,27.0,11111222
Chevron,ioos:station:wmo:42372:2,2021-12-02T08:49:00Z,27.7790,-90.5190,11.2,27.0,11111222
Chevron,ioos:station:wmo:42372:2,2021-12-02T08:59:00Z,27.7790,-90.5190,11.1,27.0,11111222
Chevron,ioos:station:wmo:42372:2,2021-12-02T09:09:00Z,27.7790,-90.5190,11.0,27.0,11111222
Chevron,ioos:station:wmo:42372:2,2021-12-02T09:19:00Z,27.7790,-90.5190,11.1,27.0,11111222
Chevron,ioos:station:wmo:42372:2,2021-12-02T09:29:00Z,27.7790,-90.5190,11.1,26.9,11111222
Chevron,ioos:station:wmo:42372:2,2021-12-02T09:39:00Z,27.7790,-90.5190,11.0,26.9,11111222
Chevron,ioos:station:wmo:42372:2,2021-12-02T09:49:00Z,27.7790,-90.5190,11.0,26.9,11111222
Chevron,ioos:station:wmo:42372:2,2021-12-02T09:59:00Z,27.7790,-90.5190,11.0,26.9,11111222
Chevron,ioos:station:wmo:42372:2,2021-12-02T10:09:00Z,27.7790,-90.5190,11.1,26.9,11111222
Chevron,ioos:station:wmo:42372:2,2021-12-02T10:19:00Z,27.7790,-90.5190,11.0,26.9,11111222
Chevron,ioos:station:wmo:42372:2,2021-12-02T10:29:00Z,27.7790,-90.5190,10.9,26.9,11111222
Chevron,ioos:station:wmo:42372:2,2021-12-02T10:39:00Z,27.7790,-90.5190,11.0,26.9,11111222
Chevron,ioos:station:wmo:42372:2,2021-12-02T10:49:00Z,27.7790,-90.5190,11.0,26.9,11111222
Chevron,ioos:station:wmo:42372:2,2021-12-02T10:59:00Z,27.7790,-90.5190,10.9,26.9,11111222
Chevron,ioos:station:wmo:42372:2,2021-12-02T11:09:00Z,27.7790,-90.5190,11.0,26.9,11111222
Chevron,ioos:station:wmo:42372:2,2021-12-02T11:19:00Z,27.7790,-90.5190,11.0,26.9,11111222
Chevron,ioos:station:wmo:42372:2,2021-12-02T11:29:00Z,27.7790,-90.5190,10.9,26.9,11111222
Chevron,ioos:station:wmo:42372:2,2021-12-02T11:39:00Z,27.7790,-90.5190,11.0,26.9,11111222
Chevron,ioos:station:wmo:42372:2,2021-12-02T11:49:00Z,27.7790,-90.5190,11.0,26.9,11111222
Chevron,ioos:station:wmo:42372:2,2021-12-02T11:59:00Z,27.7790,-90.5190,11.0,26.9,11111222
Chevron,ioos:station:wmo:42372:2,2021-12-02T12:09:00Z,27.7790,-90.5190,11.0,26.9,11111222
Chevron,ioos:station:wmo:42372:2,2021-12-02T12:19:00Z,27.7790,-90.5190,10.9,26.9,11111222
Chevron,ioos:station:wmo:42372:2,2021-12-02T12:29:00Z,27.7790,-90.5190,11.1,26.9,11111222
Chevron,ioos:station:wmo:42372:2,2021-12-02T12:39:00Z,27.7790,-90.5190,11.0,26.9,11111222
Chevron,ioos:station:wmo:42372:2,2021-12-02T12:49:00Z,27.7790,-90.5190,11.0,26.9,11111222
Chevron,ioos:station:wmo:42372:2,2021-12-02T12:59:00Z,27.7790,-90.5190,11.1,26.9,11111222
Chevron,ioos:station:wmo:42372:2,2021-12-02T13:09:00Z,27.7790,-90.5190,11.2,26.9,11111222
Chevron,ioos:station:wmo:42372:2,2021-12-02T13:19:00Z,27.7790,-90.5190,11.1,26.9,11111222
Chevron,ioos:station:wmo:42372:2,2021-12-02T13:29:00Z,27.7790,-90.5190,11.1,26.9,11111222
Chevron,ioos:station:wmo:42372:2,2021-12-02T13:39:00Z,27.7790,-90.5190,11.1,26.9,11111222
Chevron,ioos:station:wmo:42372:2,2021-12-02T13:49:00Z,27.7790,-90.5190,11.1,26.9,11111222
Chevron,ioos:station:wmo:42372:2,2021-12-02T13:59:00Z,27.7790,-90.5190,11.1,26.9,11111222
Chevron,ioos:station:wmo:42372:2,2021-12-02T14:09:00Z,27.7790,-90.5190,11.2,26.9,11111222
Chevron,ioos:station:wmo:42372:2,2021-12-02T14:19:00Z,27.7790,-90.5190,11.2,26.9,11111222
Chevron,ioos:station:wmo:42372:2,2021-12-02T14:29:00Z,27.7790,-90.5190,11.1,26.9,11111222
Chevron,ioos:station:wmo:42372:2,2021-12-02T14:39:00Z,27.7790,-90.5190,11.2,26.9,11111222
Chevron,ioos:station:wmo:42372:2,2021-12-02T14:49:00Z,27.7790,-90.5190,11.2,26.9,11111222
Chevron,ioos:station:wmo:42372:2,2021-12-02T14:59:00Z,27.7790,-90.5190,11.1,26.9,11111222
Chevron,ioos:station:wmo:42372:2,2021-12-02T15:09:00Z,27.7790,-90.5190,11.2,26.9,11111222
Chevron,ioos:station:wmo:42372:2,2021-12-02T15:19:00Z,27.7790,-90.5190,11.2,26.9,11111222
Chevron,ioos:station:wmo:42372:2,2021-12-02T15:29:00Z,27.7790,-90.5190,11.2,26.9,11111222
Chevron,ioos:station:wmo:42372:2,2021-12-02T15:39:00Z,27.7790,-90.5190,11.1,26.9,11111222
Chevron,ioos:station:wmo:42372:2,2021-12-02T15:49:00Z,27.7790,-90.5190,11.3,26.9,11111222
Chevron,ioos:station:wmo:42372:2,2021-12-02T15:59:00Z,27.7790,-90.5190,11.3,26.8,11111222
Chevron,ioos:station:wmo:42372:2,2021-12-02T16:09:00Z,27.7790,-90.5190,11.3,26.8,11111222
Chevron,ioos:station:wmo:42372:2,2021-12-02T16:19:00Z,27.7790,-90.5190,11.3,26.8,11111222
Chevron,ioos:station:wmo:42372:2,2021-12-02T16:29:00Z,27.7790,-90.5190,11.3,26.9,11111222
Chevron,ioos:station:wmo:42372:2,2021-12-02T16:39:00Z,27.7790,-90.5190,11.3,26.9,11111222
Chevron,ioos:station:wmo:42372:2,2021-12-02T16:49:00Z,27.7790,-90.5190,11.3,26.9,11111222
Chevron,ioos:station:wmo:42372:2,2021-12-02T16:59:00Z,27.7790,-90.5190,11.3,26.9,11111222
Chevron,ioos:station:wmo:42372:2,2021-12-02T17:09:00Z,27.7790,-90.5190,11.2,26.9,11111222
Chevron,ioos:station:wmo:42372:2,2021-12-02T17:19:00Z,27.7790,-90.5190,11.4,26.9,11111222
Chevron,ioos:station:wmo:42372:2,2021-12-02T17:29:00Z,27.7790,-90.5190,11.2,26.9,11111222
Chevron,ioos:station:wmo:42372:2,2021-12-02T17:39:00Z,27.7790,-90.5190,11.4,26.9,11111222
Chevron,ioos:station:wmo:42372:2,2021-12-02T17:49:00Z,27.7790,-90.5190,11.4,26.9,11111222
Chevron,ioos:station:wmo:42372:2,2021-12-02T17:59:00Z,27.7790,-90.5190,11.2,26.9,11111222
Chevron,ioos:station:wmo:42372:2,2021-12-02T18:09:00Z,27.7790,-90.5190,11.3,26.9,11111222
Chevron,ioos:station:wmo:42372:2,2021-12-02T18:19:00Z,27.7790,-90.5190,11.4,26.9,11111222
Chevron,ioos:station:wmo:42372:2,2021-12-02T18:29:00Z,27.7790,-90.5190,11.4,26.9,11111222
Chevron,ioos:station:wmo:42372:2,2021-12-02T18:39:00Z,27.7790,-90.5190,11.4,26.9,11111222
Chevron,ioos:station:wmo:42372:2,2021-12-02T18:49:00Z,27.7790,-90.5190,11.4,26.8,11111222
Chevron,ioos:station:wmo:42372:2,2021-12-02T18:59:00Z,27.7790,-90.5190,11.4,26.8,11111222
Chevron,ioos:station:wmo:42372:2,2021-12-02T19:09:00Z,27.7790,-90.5190,11.4,26.8,11111222
Chevron,ioos:station:wmo:42372:2,2021-12-02T19:19:00Z,27.7790,-90.5190,11.3,26.8,11111222
Chevron,ioos:station:wmo:42372:2,2021-12-02T19:29:00Z,27.7790,-90.5190,11.1,26.8,11111222
Chevron,ioos:station:wmo:42372:2,2021-12-02T19:39:00Z,27.7790,-90.5190,11.3,26.8,11111222